Weather History for Rome, GA

Change the Weather History Date:

Thursday, June 5, 2014

  Actual Average Record
Temperature  
Mean Temperature 77 °F 74 °F  
Max Temperature 86 °F 86 °F 98 °F (2011)
Min Temperature 67 °F 62 °F 55 °F (2003)
Cooling Degree Days 12 9  
Month to date cooling degree days 55 42  
Year to date cooling degree days 256 210  
Since 1 June cooling degree days 55 42  
Growing Degree Days 28 (Base 50)    
Moisture  
Dew Point 69 °F    
Average Humidity 82    
Maximum Humidity 100    
Minimum Humidity 63    
Precipitation  
Precipitation 0.44 in 0.14 in 1.08 in (1998)
Month to date precipitation 0.46 0.70  
Year to date precipitation 24.95 23.57  
Sea Level Pressure  
Sea Level Pressure 29.88 in    
Wind  
Wind Speed 5 mph (SW)    
Max Wind Speed 23 mph    
Max Gust Speed 34 mph    
Visibility 9 miles    
Events Rain , Thunderstorm    
T = Trace of Precipitation, MM = Missing Value Source: NWS Daily Summary

Daily Weather History Graph

Daily Weather History Graph

Search for Another Location

Airport:

Trip Planner

Search our weather history database for the weather conditions in past years. The results will help you decide how hot, cold, wet, or windy it might be!

Date:

Astronomy

Jun. 05, 2014 Rise Set
Actual Time 6:28 AM EDT 8:49 PM EDT
Civil Twilight 5:59 AM EDT 9:19 PM EDT
Nautical Twilight 5:23 AM EDT 9:54 PM EDT
Astronomical Twilight 4:44 AM EDT 10:33 PM EDT
Moon 1:29 PM EDT (6/5) 1:30 AM EDT (6/5)
Length of Visible Light 15h 19m
Length of Day
14h 21m
Waxing Crescent, 48% of the Moon is Illuminated
Jun 5
Waxing Crescent
Jun 5
First Quarter
Jun 13
Full
Jun 19
Last Quarter
Jun 27
New

Hourly Weather History & Observations

Time (EDT) Temp. Heat Index Dew Point Humidity Pressure Visibility Wind Dir Wind Speed Gust Speed Precip Events Conditions
12:53 AM 72.0 °F - 70.0 °F 93% 29.88 in 10.0 mi Calm Calm - N/A   Clear
1:53 AM 73.0 °F - 70.0 °F 90% 29.89 in 10.0 mi SW 3.5 mph - N/A   Partly Cloudy
2:53 AM 73.0 °F - 70.0 °F 90% 29.88 in 10.0 mi Calm Calm - 0.00 in   Partly Cloudy
3:53 AM 72.0 °F - 70.0 °F 93% 29.89 in 9.0 mi Calm Calm - N/A   Clear
4:53 AM 71.1 °F - 70.0 °F 96% 29.88 in 9.0 mi WNW 3.5 mph - N/A   Scattered Clouds
5:53 AM 72.0 °F - 70.0 °F 93% 29.91 in 4.0 mi WNW 6.9 mph - 0.05 in Rain Light Rain
6:00 AM 73.0 °F - 70.0 °F 90% 29.94 in 10.0 mi WNW 5.8 mph - 0.00 in Rain , Thunderstorm Light Rain
6:15 AM 73.0 °F - 70.0 °F 90% 29.95 in 10.0 mi NW 8.1 mph - 0.00 in   Mostly Cloudy
6:38 AM 72.0 °F - 69.1 °F 91% 29.92 in 10.0 mi North 4.6 mph - 0.01 in Rain , Thunderstorm Light Rain
6:53 AM 71.1 °F - 69.1 °F 93% 29.88 in 10.0 mi South 3.5 mph - 0.01 in   Partly Cloudy
7:53 AM 71.1 °F - 69.1 °F 93% 29.89 in 10.0 mi SW 6.9 mph - N/A   Clear
8:53 AM 73.0 °F - 69.1 °F 87% 29.88 in 10.0 mi WSW 11.5 mph 17.3 mph 0.00 in Rain Light Rain
9:53 AM 75.0 °F - 63.0 °F 66% 29.86 in 10.0 mi WNW 19.6 mph 34.5 mph 0.00 in   Overcast
10:53 AM 71.1 °F - 64.9 °F 81% 29.78 in 10.0 mi SSW 11.5 mph 20.7 mph 0.00 in Rain Light Rain
11:53 AM 73.9 °F - 64.0 °F 71% 29.84 in 10.0 mi North 9.2 mph - 0.00 in   Clear
12:53 PM 79.0 °F - 66.0 °F 64% 29.86 in 10.0 mi NNE 6.9 mph - N/A   Clear
1:53 PM 81.0 °F 83.8 °F 68.0 °F 65% 29.86 in 10.0 mi Calm Calm - N/A   Clear
2:53 PM 82.0 °F 84.9 °F 68.0 °F 62% 29.87 in 10.0 mi Variable 3.5 mph - N/A   Clear
3:53 PM 82.9 °F 87.0 °F 70.0 °F 65% 29.86 in 10.0 mi Calm Calm - N/A   Overcast
4:53 PM 82.9 °F 88.0 °F 72.0 °F 69% 29.85 in 10.0 mi SSE 4.6 mph - N/A   Mostly Cloudy
5:53 PM 82.0 °F 86.7 °F 72.0 °F 71% 29.85 in 10.0 mi SSW 5.8 mph - N/A   Mostly Cloudy
6:25 PM 79.0 °F - 73.9 °F 84% 29.92 in 10.0 mi North - - N/A Thunderstorm Scattered Clouds
6:28 PM 77.0 °F - 72.0 °F 84% 29.93 in 1.2 mi North - - 0.00 in Rain , Thunderstorm Thunderstorms and Rain
6:40 PM 70.0 °F - 68.0 °F 93% 29.91 in 3.0 mi North - - 0.36 in Rain , Thunderstorm Light Thunderstorms and Rain
6:53 PM 70.0 °F - 68.0 °F 93% 29.88 in 2.5 mi South 3.5 mph - 0.37 in Rain , Thunderstorm Light Thunderstorms and Rain
7:06 PM 69.1 °F - 68.0 °F 96% 29.91 in 10.0 mi SSE 5.8 mph - 0.01 in Rain , Thunderstorm Light Thunderstorms and Rain
7:15 PM 69.1 °F - 68.0 °F 96% 29.91 in 10.0 mi SSE 8.1 mph - 0.01 in Thunderstorm Mostly Cloudy
7:42 PM 70.0 °F - 69.1 °F 97% 29.91 in 10.0 mi South 5.8 mph - 0.01 in Thunderstorm Thunderstorm
7:53 PM 70.0 °F - 69.1 °F 97% 29.87 in 10.0 mi South 10.4 mph - 0.01 in Thunderstorm Thunderstorm
8:03 PM 69.8 °F - 69.8 °F 100% 29.87 in 10.0 mi South 5.8 mph - N/A Thunderstorm Partly Cloudy
8:10 PM 70.0 °F - 69.1 °F 97% 29.86 in 10.0 mi Calm Calm - N/A   Clear
8:53 PM 70.0 °F - 69.1 °F 97% 29.80 in 8.0 mi Calm Calm - N/A   Clear
9:53 PM 70.0 °F - 69.1 °F 97% 29.84 in 10.0 mi WSW 3.5 mph - N/A   Clear
10:53 PM 70.0 °F - 68.0 °F 93% 29.89 in 10.0 mi West 4.6 mph - N/A   Clear
11:53 PM 69.1 °F - 66.9 °F 93% 29.91 in 10.0 mi Calm Calm - N/A   Clear